Montello, Wisconsin, United States (53949)
Lat: 43.79N, Lon: 89.32W
Wx Zone: WIZ046
Local Info
Past Weather Observations for Friday, August 22, 2014

NOTE: This archive is for the closest National Weather Service station to Montello. Information may differ from the station used for current weather conditions.

Click here for Long-term Archive

Time Weather Temperature Dewpoint Humidity Pressure Winds Precip Visibility
23:55
Clear
Fog And Mist
73°F / 23°C 70°F / 21°C 89% 29.98 in
(1015 mb)
Calm - 3SM
23:35
Clear
Fog And Mist
73°F / 23°C 72°F / 22°C 94% 29.98 in
(1015 mb)
Calm - 4SM
23:15
Clear
Fog And Mist
75°F / 24°C 72°F / 22°C 89% 29.98 in
(1015 mb)
Calm - 5SM
22:55
Partly Cloudy
75°F / 24°C 72°F / 22°C 89% 29.98 in
(1015 mb)
Calm - 7SM
22:35
Partly Cloudy
75°F / 24°C 72°F / 22°C 89% 29.98 in
(1015 mb)
Calm - 7SM
22:15
Partly Cloudy
Fog And Mist
73°F / 23°C 72°F / 22°C 94% 29.98 in
(1015 mb)
E 3.5 mph
(E 6 kph)
- 5SM
21:55
Clear
75°F / 24°C 72°F / 22°C 89% 29.98 in
(1015 mb)
Calm - 7SM
21:35
Clear
75°F / 24°C 72°F / 22°C 89% 29.98 in
(1015 mb)
Calm - 10SM
21:15
Partly Cloudy
77°F / 25°C 73°F / 23°C 89% 29.98 in
(1015 mb)
Calm - 10SM
20:55
Partly Cloudy
75°F / 24°C 72°F / 22°C 89% 29.98 in
(1015 mb)
Calm - 10SM
20:35
Partly Cloudy
75°F / 24°C 72°F / 22°C 89% 29.98 in
(1015 mb)
Calm - 10SM
20:15
Clear
77°F / 25°C 72°F / 22°C 83% 29.98 in
(1015 mb)
Calm - 10SM
19:55
Partly Cloudy
77°F / 25°C 73°F / 23°C 89% 29.98 in
(1015 mb)
Calm - 10SM
19:35
Partly Cloudy
79°F / 26°C 73°F / 23°C 84% 29.95 in
(1014 mb)
Calm - 10SM
19:15
Mostly Cloudy
79°F / 26°C 72°F / 22°C 79% 29.95 in
(1014 mb)
Calm - 10SM
18:55
Partly Cloudy
81°F / 27°C 73°F / 23°C 79% 29.95 in
(1014 mb)
Calm - 10SM
18:35
Clear
82°F / 28°C 72°F / 22°C 70% 29.95 in
(1014 mb)
Calm - 10SM
18:15
Clear
86°F / 30°C 70°F / 21°C 59% 29.95 in
(1014 mb)
Calm - 10SM
17:55
Clear
86°F / 30°C 70°F / 21°C 59% 29.95 in
(1014 mb)
Calm - 10SM
17:35
Clear
88°F / 31°C 68°F / 20°C 52% 29.95 in
(1014 mb)
Calm - 10SM
17:15
Clear
88°F / 31°C 68°F / 20°C 52% 29.95 in
(1014 mb)
Calm - 10SM
16:55
Clear
88°F / 31°C 68°F / 20°C 52% 29.95 in
(1014 mb)
Calm - 10SM
16:35
Clear
88°F / 31°C 68°F / 20°C 52% 29.92 in
(1013 mb)
Calm - 10SM
16:15
Clear
88°F / 31°C 68°F / 20°C 52% 29.95 in
(1014 mb)
Calm - 10SM
15:55
Clear
88°F / 31°C 70°F / 21°C 55% 29.95 in
(1014 mb)
SSW 4.6 mph
(SSW 7 kph)
- 10SM
15:40
Clear
88°F / 31°C 70°F / 21°C 55% 29.95 in
(1014 mb)
Calm - 10SM
15:10
Partly Cloudy
90°F / 32°C 68°F / 20°C 49% 29.92 in
(1013 mb)
Calm - 10SM
14:55
Clear
88°F / 31°C 68°F / 20°C 52% 29.92 in
(1013 mb)
NW 3.5 mph
(NW 6 kph)
- 10SM
14:35
Clear
90°F / 32°C 68°F / 20°C 49% 29.92 in
(1013 mb)
SW 3.5 mph
(SW 6 kph)
- 10SM
14:15
Partly Cloudy
90°F / 32°C 70°F / 21°C 52% 29.92 in
(1013 mb)
Calm - 10SM
13:55
Partly Cloudy
90°F / 32°C 68°F / 20°C 49% 29.95 in
(1014 mb)
SW 3.5 mph
(SW 6 kph)
- 10SM
13:35
Partly Cloudy
90°F / 32°C 70°F / 21°C 52% 29.95 in
(1014 mb)
SW 4.6 mph
(SW 7 kph)
- 10SM
13:15
Partly Cloudy
88°F / 31°C 70°F / 21°C 55% 29.95 in
(1014 mb)
SSW 5.8 mph
(SSW 9 kph)
- 10SM
12:55
Partly Cloudy
88°F / 31°C 70°F / 21°C 55% 29.95 in
(1014 mb)
SW 8.1 mph
(SW 13 kph)
- 10SM
12:35
Partly Cloudy
88°F / 31°C 70°F / 21°C 55% 29.95 in
(1014 mb)
S 3.5 mph
(S 6 kph)
- 10SM
12:15
Partly Cloudy
86°F / 30°C 70°F / 21°C 59% 29.95 in
(1014 mb)
Calm - 10SM
11:55
Overcast
86°F / 30°C 70°F / 21°C 59% 29.95 in
(1014 mb)
SSE 5.8 mph
(SSE 9 kph)
- 10SM
11:35
Overcast
86°F / 30°C 70°F / 21°C 59% 29.95 in
(1014 mb)
S 6.9 mph
(S 11 kph)
- 10SM
11:15
Mostly Cloudy
84°F / 29°C 70°F / 21°C 62% 29.95 in
(1014 mb)
S 6.9 mph
(S 11 kph)
- 10SM
10:55
Partly Cloudy
86°F / 30°C 70°F / 21°C 59% 29.95 in
(1014 mb)
SSE 5.8 mph
(SSE 9 kph)
- 10SM
10:35
Partly Cloudy
84°F / 29°C 70°F / 21°C 62% 29.95 in
(1014 mb)
S 6.9 mph
(S 11 kph)
- 10SM
10:15
Partly Cloudy
82°F / 28°C 70°F / 21°C 66% 29.95 in
(1014 mb)
SSE 4.6 mph
(SSE 7 kph)
- 10SM
09:55
Partly Cloudy
82°F / 28°C 72°F / 22°C 70% 29.95 in
(1014 mb)
S 6.9 mph
(S 11 kph)
- 10SM
09:35
Mostly Cloudy
82°F / 28°C 72°F / 22°C 70% 29.95 in
(1014 mb)
S 6.9 mph
(S 11 kph)
- 10SM
09:15
Overcast
81°F / 27°C 72°F / 22°C 74% 29.95 in
(1014 mb)
SSE 6.9 mph
(SSE 11 kph)
- 10SM
08:55
Overcast
79°F / 26°C 73°F / 23°C 84% 29.95 in
(1014 mb)
S 4.6 mph
(S 7 kph)
- 10SM
08:35
Overcast
77°F / 25°C 73°F / 23°C 89% 29.95 in
(1014 mb)
SSE 4.6 mph
(SSE 7 kph)
- 7SM
08:15
Overcast
75°F / 24°C 72°F / 22°C 89% 29.95 in
(1014 mb)
Calm - 7SM
07:55
Overcast
73°F / 23°C 72°F / 22°C 94% 29.95 in
(1014 mb)
Calm - 7SM
07:35
Overcast
Fog And Mist
73°F / 23°C 72°F / 22°C 94% 29.95 in
(1014 mb)
Calm - 5SM
07:15
Overcast
Fog And Mist
73°F / 23°C 72°F / 22°C 94% 29.95 in
(1014 mb)
Calm - 5SM
06:55
Overcast
Fog And Mist
72°F / 22°C 70°F / 21°C 94% 29.95 in
(1014 mb)
Calm - 4SM
06:35
Overcast
Fog And Mist
72°F / 22°C 70°F / 21°C 94% 29.95 in
(1014 mb)
Calm - 3SM
06:15
Overcast
Fog And Mist
70°F / 21°C 68°F / 20°C 94% 29.95 in
(1014 mb)
Calm - 3SM
05:55
Overcast
Fog And Mist
70°F / 21°C 68°F / 20°C 94% 29.92 in
(1013 mb)
Calm - 3SM
05:35
Overcast
Fog And Mist
70°F / 21°C 68°F / 20°C 94% 29.92 in
(1013 mb)
Calm - 3SM
05:15
Overcast
Fog And Mist
70°F / 21°C 68°F / 20°C 94% 29.92 in
(1013 mb)
Calm - 3SM
04:55
Overcast
Fog And Mist
70°F / 21°C 68°F / 20°C 94% 29.92 in
(1013 mb)
Calm - 2 1/2SM
04:35
Overcast
Fog And Mist
70°F / 21°C 68°F / 20°C 94% 29.92 in
(1013 mb)
E 4.6 mph
(E 7 kph)
- 2 1/2SM
04:15
Overcast
Fog And Mist
70°F / 21°C 68°F / 20°C 94% 29.92 in
(1013 mb)
E 3.5 mph
(E 6 kph)
- 3SM
03:55
Overcast
Fog And Mist
70°F / 21°C 68°F / 20°C 94% 29.92 in
(1013 mb)
Calm - 2 1/2SM
03:35
Mostly Cloudy
Fog And Mist
70°F / 21°C 68°F / 20°C 94% 29.92 in
(1013 mb)
Calm - 2SM
03:15
Partly Cloudy
Fog And Mist
70°F / 21°C 68°F / 20°C 94% 29.92 in
(1013 mb)
Calm - 2 1/2SM
02:55
Mostly Cloudy
Fog And Mist
68°F / 20°C 66°F / 19°C 94% 29.92 in
(1013 mb)
Calm - 1 1/4SM
02:35
Obscured
Fog
68°F / 20°C 66°F / 19°C 94% 29.89 in
(1012 mb)
Calm - 1/2SM
02:15
Obscured
Fog And Mist
68°F / 20°C 66°F / 19°C 94% 29.89 in
(1012 mb)
Calm - 1 1/2SM
01:55
Clear
Fog And Mist
70°F / 21°C 68°F / 20°C 94% 29.89 in
(1012 mb)
Calm - 2SM
01:35
Obscured
Fog And Mist
70°F / 21°C 68°F / 20°C 94% 29.89 in
(1012 mb)
Calm - 1 1/2SM
01:15
Obscured
Fog And Mist
68°F / 20°C 66°F / 19°C 94% 29.89 in
(1012 mb)
Calm - 1 1/4SM
00:55
Obscured
Fog And Mist
70°F / 21°C 68°F / 20°C 94% 29.92 in
(1013 mb)
Calm - 1SM
00:35
Clear
Fog And Mist
70°F / 21°C 68°F / 20°C 94% 29.92 in
(1013 mb)
Calm - 3SM
00:15
Clear
Fog And Mist
72°F / 22°C 70°F / 21°C 94% 29.92 in
(1013 mb)
Calm - 4SM
Time Weather Temperature Dewpoint Humidity Pressure Winds Precip Visibility


Weather for websites

WeatherForYou.com, LLC is not responsible for any damages or problems caused by this service. Current weather conditions are obtained from the closest station including government and personal stations which may have varying degrees of accuracy. Weather forecasts are derived from the NOAA NDFD. Like all things, this site belongs to Jesus Christ... He just trusts me to maintain it. If you have any questions or comments email webmaster@weatherforyou.com

Copyright © 2014, WeatherForYou.com LLC. All rights reserved.